Location: Dentlein
(49.1477°N, 10.4231°E)
Time: 04:15:53
(UTC+00:00)

Cosmos 1825 - Pass Details

Date: 15 August 2024
Orbit: 422 x 426 km, 82.5° (Epoch: 09 September)

Event Time Altitude Azimuth Distance (km) Brightness Sun altitude
Rises 01:32:16 0° 360° (N) 2,407 6.5 -20.7°
Reaches altitude 10° 01:34:33 10° 13° (NNE) 1,531 5.6 -20.5°
Maximum altitude 01:37:25 26° 73° (ENE) 880 3.9 -20.3°
Enters shadow 01:39:52 12° 128° (SE) 1,386 4.3 -20.0°
